Vertical_Velocity
1 1 1 0 -1 -2 -2 -1 -2 -3 -2 -1 -1 -2 -1 -0 -0 -1 -0 -0 0 -0 -0 -0 -0 -0 -0 -0 -0 -0 -0 -0 -0 -1 -1 -1 -1 -1 -1 -0 -0 -0 -0 -0 0 1 1 2 2 2 2 2 1 1 1 1 1 1 1 1 0 -0 -0 -1 -1 -1 -2 -2 -3 -3 -2 -1 -0 1 1 1 1 1 0 -0 -1 -1 -1 -1 -1 -1
1 2 1 1 -1 -2 -2 -1 -2 -2 -2 -1 -1 -2 -1 -0 -0 -0 -0 -0 0 -0 -0 -0 -0 -0 -0 -0 -0 -0 -0 -0 -0 -0 -0 -0 -0 -1 -1 -1 -1 -1 -1 -0 -0 0 1 1 1 1 1 1 0 -0 -0 -0 -0 -0 -0 -0 -0 -1 -1 -1 -2 -2 -2 -2 -2 -2 -2 -2 -2 -1 -0 0 0 0 -0 -0 -1 -1 -1 -1 -1 -2
-0 0 1 1 0 -1 -2 -2 -1 -1 -1 -1 -1 -1 -1 -1 -0 -0 -0 -0 -0 -0 -0 -0 -0 -0 -1 -1 -1 -0 -0 -0 -0 -0 -0 -0 -0 -0 -1 -1 -1 -1 -1 -1 -0 -0 -0 0 0 1 1 0 0 0 -0 -0 -0 -0 -1 -1 -1 -1 -1 -1 -1 -1 -1 -1 -1 -1 -1 -1 -1 -1 -1 -0 0 0 0 -0 -0 -1 -1 -1 -1 -1
-1 -1 1 2 1 -1 -1 -1 -1 -1 -1 -1 -1 -1 -1 -1 -0 -0 -0 -0 -0 -0 -0 -0 -0 -0 -0 -1 -1 -0 -0 -0 -0 -0 -0 -0 -0 -0 -1 -1 -1 -1 -1 -1 -1 -0 -0 -0 -0 0 0 1 1 1 1 1 0 0 -0 -1 -1 -1 -1 -1 -0 -0 -0 0 0 1 1 1 1 1 1 1 1 1 0 0 -0 -0 -1 -1 -1 -1
-2 -1 1 2 1 -1 -1 -1 -1 -1 -1 -2 -2 -1 -1 -1 -1 -0 -0 -0 -0 -0 -1 -0 -0 -0 -0 -0 -0 -0 0 0 0 0 0 0 -0 -0 -0 -0 -1 -1 -1 -0 -0 -1 -1 -0 -0 -0 0 1 1 1 1 1 1 1 1 0 0 -0 0 0 0 1 1 1 1 1 1 1 1 1 1 1 1 1 0 -0 -0 -0 -1 -1 -1 -1
-2 -2 2 2 1 -1 -1 -0 -0 -0 -1 -2 -2 -2 -1 -1 -1 -1 -0 -0 -0 -0 -1 -0 -0 -0 -0 -0 0 0 1 1 1 1 0 0 -0 -0 -0 -0 -0 -0 -0 -0 -0 -0 -0 -0 -0 -0 0 1 1 1 1 1 1 1 1 1 1 1 1 1 1 1 1 1 1 1 1 0 0 0 0 0 0 -0 -0 -0 -1 -1 -1 -1 -1 -1
-2 -2 2 2 1 -0 -0 -0 -0 -0 -1 -2 -2 -2 -2 -1 -1 -1 -1 -1 -0 -0 -1 -1 -0 -0 -0 0 0 1 1 1 1 1 1 0 0 -0 -0 -0 -0 -0 -0 -0 -0 -0 -0 -0 -0 -0 -0 -0 -0 -0 -0 0 0 0 0 1 1 1 1 1 1 0 0 0 0 -0 -0 -0 -0 -0 -0 -0 -0 -0 -0 -0 -0 -1 -1 -1 -1 -1
-3 -3 2 2 1 -0 -0 -0 0 0 -0 -1 -2 -2 -3 -1 -1 -1 -1 -1 -1 -0 -0 -1 -1 -0 -0 1 1 1 1 1 1 1 1 0 0 -0 -0 -0 -0 -0 -0 -0 -0 -0 -0 -0 -0 -0 -0 -1 -1 -1 -1 -0 -0 -0 -0 -0 -0 -0 -0 -0 -0 -0 -0 -0 -0 -0 -1 -0 -0 -0 -0 0 0 0 0 0 0 -0 -0 -0 -0 -0
-1 -2 -0 1 1 1 -1 -1 0 2 1 0 -1 -2 -3 -2 -2 -1 -0 -0 -0 -0 -0 -0 -1 -1 -0 1 1 1 1 1 1 1 0 0 0 0 -0 -0 -0 -0 -0 -0 -0 -0 -0 -0 -0 -1 -1 -1 -1 -1 -1 -1 -1 -1 -1 -1 -1 -1 -1 -1 -1 -1 -1 -1 -1 -1 -0 -0 -0 0 0 1 1 1 1 1 1 0 0 -0 -0 -1
-0 -1 -1 -0 1 1 0 -1 -1 1 3 1 -0 -1 -1 -2 -2 -2 -1 -1 -0 0 1 0 -1 -1 -1 0 1 1 1 0 0 1 1 0 0 -0 -0 -0 -0 -0 -0 -0 -1 -1 -1 -1 -1 -1 -1 -1 -1 -1 -1 -1 -1 -1 -1 -1 -1 -1 -1 -1 -1 -1 -1 -1 -0 -0 -0 -0 0 1 1 1 1 1 1 1 1 0 -0 -0 -1 -1
-1 -0 0 -1 -0 0 1 -1 -0 1 2 1 -0 -0 -0 -0 -1 -1 -2 -3 -2 -0 2 1 0 -0 -1 -1 -0 0 1 -0 -0 -0 1 1 0 -0 -0 -1 -1 -0 -0 -0 -1 -1 -1 -1 -1 -1 -1 -1 -1 -1 -1 -1 -1 -1 -1 -1 -1 -1 -1 -1 -1 -1 -0 -0 -0 -0 0 0 1 1 1 1 1 1 1 1 0 0 -0 -0 -1 -1
-1 -0 -0 -0 -0 -0 -0 -0 0 1 1 1 -0 -1 -1 0 1 1 -1 -4 -4 -2 1 2 2 0 -0 -1 -1 -1 -0 -0 -0 -0 0 0 -0 -0 -1 -1 -1 -1 -0 -1 -1 -1 -1 -1 -1 -1 -1 -1 -1 -1 -1 -1 -1 -1 -1 -1 -1 -1 -1 -1 -0 -0 -0 -0 0 0 0 1 1 1 1 1 1 1 0 0 0 -0 -0 -0 -0 -1
-1 -0 -0 -0 -1 -1 -0 -0 0 1 1 1 0 -0 -2 -0 1 1 -0 -3 -4 -3 -0 1 0 -0 -0 -0 -1 -1 -1 -1 -1 -0 -0 -0 -0 -0 -0 -1 -1 -1 -0 -1 -1 -1 -0 -0 -1 -1 -1 -1 -1 -1 -0 -1 -1 -1 -1 -1 -1 -1 -1 -0 -0 -0 -0 0 0 0 1 1 1 1 1 1 0 0 0 0 -0 -0 -0 -0 -0 -0
-1 -0 0 -0 -1 -1 -0 1 1 1 -0 1 1 0 -1 -0 0 0 -0 -2 -3 -2 0 -0 -2 -3 -2 -1 -0 -1 -1 -1 -1 -1 -0 -1 -1 -0 0 -1 -1 -1 -0 -1 -1 -2 -1 -0 -1 -1 -1 -0 -0 -1 -1 -1 -1 -1 -1 -1 -1 -1 -0 -0 -0 -0 0 0 0 0 0 1 1 1 0 0 0 0 -0 -0 -0 -0 -0 -0 -0 -0
0 0 0 -1 -1 -1 -0 1 2 1 -1 -0 1 1 -0 -0 -0 0 1 -1 -2 -2 1 -1 -3 -4 -3 -1 -0 -0 -1 -1 -1 -1 -1 -1 -1 0 1 -0 -1 -1 -0 -0 -1 -2 -1 -0 -0 -1 -1 -0 -0 -1 -1 -1 -1 -1 -1 -1 -1 -1 -0 -0 -0 -0 -0 -0 0 0 0 0 0 0 -0 -0 -0 -0 -0 -0 -0 -0 -0 -0 -0 -0
0 1 0 -1 -1 -1 -0 2 2 1 -2 -1 0 1 0 -0 -0 1 1 -1 -2 -1 1 -0 -2 -4 -4 -1 1 1 -0 -1 -2 -2 -1 -2 -1 -0 2 0 -1 -2 -0 -0 -1 -1 -1 -0 -0 -0 -0 -0 -0 -0 -1 -1 -1 -1 -0 -0 -0 -0 -0 -0 -0 -0 -0 -0 -0 -0 -0 -0 -0 -0 -0 -0 -1 -1 -1 -1 -1 -1 -1 -1 -1 -1
-0 0 0 -0 -1 -1 -0 3 3 1 -1 -1 0 1 1 -0 0 1 1 -0 -1 -1 -0 -0 -1 -2 -5 -2 -0 1 1 -0 -2 -3 -1 -2 -2 -1 2 1 -1 -2 -1 0 -0 -1 -0 -0 -0 -0 0 0 -0 -0 -1 -1 -1 -0 -0 -0 -0 -0 -0 -0 -0 -0 -0 -0 -0 -0 -0 -1 -1 -1 -1 -1 -1 -1 -1 -1 -1 -1 -1 -1 -1 -1
-1 -0 1 0 -0 -1 1 3 2 1 -0 0 0 0 0 0 0 0 0 -0 -0 -0 -1 -0 -0 -1 -2 -3 -2 0 4 1 -2 -4 -2 -2 -2 -1 1 1 -1 -2 -1 -0 0 -0 0 -0 0 0 1 0 0 -0 -0 -0 -0 -0 -0 -0 -0 -0 -0 -1 -1 -1 -1 -1 -1 -1 -1 -1 -1 -1 -1 -1 -1 -1 -1 -1 -1 -1 -1 -1 -2 -2
-3 -1 1 0 -0 0 1 2 2 1 2 1 1 1 0 -0 0 1 1 0 0 0 -0 -0 -1 -1 -0 -3 -2 0 4 2 -1 -3 -2 -2 -2 -1 0 1 -1 -2 -1 -0 -0 0 0 0 1 1 1 1 0 -0 -0 -0 -0 -0 -0 -0 -0 -1 -1 -1 -1 -1 -1 -1 -1 -1 -1 -1 -1 -1 -1 -1 -1 -1 -1 -1 -1 -1 -2 -2 -2 -2
-3 -2 -0 1 1 0 -0 0 1 2 3 1 1 1 -0 -1 0 1 1 1 0 0 -0 -0 -1 -1 -1 -1 -1 0 3 2 -0 -2 -3 -1 -1 -1 -0 0 -0 -2 -1 -1 -0 0 0 0 1 1 1 1 0 0 -0 -0 -0 -0 -1 -1 -1 -1 -1 -1 -1 -1 -1 -1 -1 -1 -1 -1 -1 -1 -1 -1 -1 -1 -1 -1 -2 -2 -2 -2 -2 -2
-3 -3 -1 2 2 0 -2 -0 1 2 3 1 1 -0 -1 -0 1 1 1 1 1 0 -0 -0 -0 -1 -0 1 1 0 1 1 -0 -2 -3 -1 -1 -1 -1 0 -0 -1 -1 -1 -0 0 0 -0 0 1 1 1 0 -0 -0 -0 -0 -1 -1 -1 -1 -1 -1 -1 -2 -2 -2 -2 -2 -2 -2 -1 -1 -1 -1 -1 -1 -1 -2 -2 -2 -2 -2 -2 -2 -2
-2 -2 -0 1 1 0 -1 -1 0 1 2 1 0 -1 -1 0 1 1 1 2 1 1 -0 -0 -0 -0 1 1 1 0 1 1 -0 -2 -2 -1 -1 -1 -1 0 -0 -1 -1 -1 -0 -0 -0 -0 0 1 1 1 0 -0 -0 -0 -1 -1 -1 -1 -1 -1 -1 -1 -2 -2 -2 -2 -2 -2 -2 -2 -2 -2 -2 -2 -2 -2 -2 -2 -2 -2 -2 -2 -2 -2
-1 -1 -0 -0 0 0 -0 -1 -0 0 1 1 0 -1 -0 1 1 1 1 2 1 1 -0 -0 -0 0 1 1 1 0 0 0 -0 -1 -1 -1 -1 -1 -0 1 -0 -1 -2 -1 -0 -1 -1 -1 -0 1 1 1 0 -0 -0 -0 -1 -1 -1 -1 -1 -1 -1 -1 -1 -2 -2 -2 -2 -2 -2 -2 -2 -2 -2 -2 -2 -2 -2 -2 -2 -2 -2 -2 -2 -2
-0 -0 -0 -0 0 0 -0 -0 -0 0 0 0 0 0 0 1 1 1 1 1 1 1 0 0 1 1 0 1 1 1 0 0 0 -0 -1 -2 -1 -1 0 1 0 -1 -2 -1 -0 -1 -1 -1 -0 1 1 1 0 -0 -0 -1 -1 -1 -1 -1 -1 -1 -1 -1 -1 -1 -1 -1 -1 -1 -1 -1 -2 -2 -2 -2 -2 -2 -2 -2 -2 -2 -2 -1 -1 -1
-0 -0 -1 -0 0 0 -0 -0 -0 0 0 0 0 0 0 1 1 1 0 1 1 1 1 1 1 1 0 1 2 1 -1 0 1 0 -1 -1 -1 -0 -0 1 1 0 -1 -1 -0 -1 -1 -1 -1 0 1 1 0 -0 -1 -1 -1 -1 -1 -1 -1 -1 -1 -1 -1 -1 -1 -1 -1 -1 -1 -1 -1 -1 -1 -1 -1 -1 -1 -1 -1 -1 -1 -1 -1 -1
1 0 0 0 0 0 -0 -0 -0 -0 -0 0 0 0 1 1 1 1 0 1 1 2 2 1 1 0 1 2 1 0 -1 0 1 1 -0 -0 -0 -0 -1 0 1 1 -0 -0 -0 -1 -1 -1 -0 0 1 1 0 -0 -1 -1 -1 -1 -1 -1 -1 -1 -1 -1 -1 -1 -1 -1 -1 -1 -1 -1 -1 -1 -1 -1 -1 -1 -1 -1 -1 -1 -1 -1 -0 -0
1 1 1 1 0 -0 -0 -1 -1 -1 -0 0 0 1 1 1 1 -0 -1 0 2 3 3 1 0 1 2 2 1 -0 -1 0 1 1 1 1 0 -1 -1 0 1 1 -0 -0 -0 -0 -0 -0 -0 0 1 0 -0 -0 -1 -1 -1 -1 -1 -1 -1 -1 -1 -1 -0 -0 -0 -0 -0 -0 -0 -0 -0 -0 -0 -0 -1 -1 -1 -1 -1 -1 -0 -0 -0 0
2 1 1 1 0 -0 -1 -1 -1 -1 -0 -0 0 1 1 1 0 -0 -1 1 3 4 2 1 1 1 2 2 1 -0 -1 -0 0 1 2 2 0 -1 -1 1 1 0 -0 -0 -0 -0 0 -0 -0 -0 0 -0 -0 -1 -1 -1 -1 -1 -1 -1 -1 -1 -1 -1 -0 -0 -0 -0 -0 -0 -0 -0 -0 0 0 -0 -0 -0 -1 -1 -1 -0 -0 0 0 1
2 1 1 0 -0 -1 -1 -1 -1 -1 -1 -0 0 1 1 1 0 -0 -1 2 4 4 1 1 1 1 1 1 0 -0 -0 -0 0 1 3 2 0 -2 -1 1 1 -0 -1 -0 -0 -0 0 0 0 0 -0 -1 -1 -1 -1 -1 -1 -1 -1 -1 -2 -2 -2 -1 -1 -1 -1 -1 -1 -1 -1 -0 -0 0 0 0 -0 -0 -0 -1 -1 -0 -0 0 0 0
1 1 0 -0 -1 -1 -1 -1 -1 -1 -1 -0 -0 0 1 1 0 0 1 3 3 3 1 1 1 2 1 1 1 0 -1 -0 1 2 4 2 -0 -2 -0 1 -0 -1 -0 0 0 -0 -0 1 1 1 -0 -1 -1 -1 -1 -1 -2 -2 -2 -2 -3 -3 -3 -3 -2 -2 -2 -2 -2 -2 -1 -1 -1 -0 -0 -0 -1 -1 -1 -1 -1 -1 -1 -0 -0 -0
2 1 0 -1 -1 -1 -1 -1 -1 -1 -1 -1 -0 0 1 1 1 1 2 3 3 2 1 1 1 2 2 1 1 -0 -1 -0 1 2 3 1 -1 -2 -0 1 -0 -1 -0 1 0 -0 -0 1 2 1 -0 -1 -1 -2 -1 -2 -2 -2 -3 -3 -4 -4 -5 -4 -4 -4 -4 -3 -3 -3 -3 -2 -2 -2 -2 -2 -2 -2 -2 -2 -2 -2 -2 -1 -1 -1
2 1 1 -0 -1 -1 -1 -1 -1 -2 -2 -1 -0 1 1 2 2 2 2 2 2 2 1 1 1 2 2 1 1 -0 -0 0 1 2 3 1 -1 -2 -0 1 -0 -1 -1 1 1 -0 -0 2 2 2 1 -0 -1 -2 -1 -2 -2 -2 -3 -3 -4 -5 -6 -5 -5 -4 -5 -4 -4 -4 -4 -4 -3 -3 -3 -3 -3 -3 -3 -4 -4 -4 -3 -3 -2 -2
2 1 1 -0 -1 -1 -1 -1 -1 -2 -2 -1 -0 1 2 2 2 2 2 2 2 2 1 1 1 1 2 1 1 1 0 0 1 1 3 1 -1 -2 -1 0 -0 -1 -1 0 0 0 0 1 2 2 2 1 -0 -1 -1 -1 -1 -2 -2 -3 -4 -4 -5 -4 -4 -4 -5 -4 -4 -4 -4 -4 -4 -4 -4 -4 -4 -4 -4 -4 -4 -4 -4 -4 -4 -3
1 1 0 -1 -1 -2 -1 -1 -1 -1 -1 -1 -0 1 2 3 3 3 3 2 2 1 1 1 1 1 1 2 2 1 1 -0 1 2 3 1 -0 -1 -1 0 -0 -0 -0 0 0 0 1 1 2 2 2 2 1 1 -0 -0 -0 -1 -1 -2 -3 -3 -3 -3 -3 -3 -4 -3 -4 -4 -4 -4 -4 -4 -4 -4 -4 -4 -4 -4 -5 -5 -5 -4 -4 -4
1 0 0 -1 -1 -2 -1 -1 -1 -1 -1 -1 0 1 2 3 4 4 3 3 2 1 1 1 1 1 1 2 2 2 1 -0 1 2 3 1 -0 -1 -0 -0 -0 -0 0 -0 0 0 1 1 1 1 2 2 2 2 1 1 1 0 -1 -2 -2 -2 -2 -2 -1 -1 -2 -2 -2 -2 -3 -2 -2 -3 -3 -3 -4 -4 -4 -4 -4 -4 -5 -5 -4 -4
0 0 1 -0 -1 -1 -1 -1 -1 -0 -0 -0 1 2 3 3 4 3 3 3 2 1 1 0 0 1 1 1 2 2 1 0 1 2 2 1 0 -0 -0 -0 -0 -0 0 -0 -0 0 1 1 1 1 1 2 2 2 1 1 1 1 0 -1 -1 -0 -1 -1 -0 -0 -0 -0 -1 -1 -1 -1 -1 -1 -1 -1 -1 -2 -2 -3 -3 -3 -4 -4 -4 -4
-0 0 1 0 0 -0 -1 -1 -1 -0 -0 1 1 2 3 3 3 3 3 3 2 2 1 0 0 1 1 1 2 1 1 1 1 1 2 1 1 0 -0 -0 -0 0 0 -0 -0 0 1 1 1 1 1 1 1 1 1 1 1 1 1 0 0 1 0 -0 0 1 1 0 -0 -0 -1 -0 -0 -0 -0 0 0 0 -0 -0 -1 -1 -2 -3 -3 -4
-0 0 1 1 1 1 0 -0 -0 0 1 1 2 2 3 3 3 3 3 3 2 1 1 0 0 1 1 2 2 1 1 1 1 1 1 1 1 0 0 0 0 0 0 0 -0 -0 -0 0 1 1 1 1 1 1 0 0 0 0 0 1 1 1 0 0 1 1 1 1 0 -0 -0 -0 0 0 0 1 1 2 2 1 1 1 -0 -1 -2 -2
0 1 1 1 1 1 1 1 1 1 1 1 2 2 2 3 3 3 2 2 2 1 1 1 1 1 2 2 2 1 1 1 1 1 1 1 1 0 0 0 1 1 1 1 0 -0 -0 -0 -0 0 1 1 1 1 1 0 0 -0 -0 1 1 1 0 1 1 1 0 1 0 -0 -0 -0 1 1 1 1 2 2 2 2 2 2 1 0 -1 -1
2 2 1 1 1 2 2 2 1 1 1 1 1 2 2 2 2 2 2 1 1 1 1 1 1 2 2 2 2 2 1 2 2 2 1 1 1 0 0 0 0 1 1 1 1 0 -0 -0 -0 -0 -0 0 1 1 2 1 1 0 -0 0 1 1 1 2 1 1 1 1 1 0 -0 -0 0 1 1 1 2 2 2 2 2 2 1 1 0 -1
3 2 1 1 2 2 3 2 1 1 0 1 1 2 2 3 2 1 1 1 1 1 1 2 2 2 2 2 2 2 2 2 2 1 1 1 1 0 1 0 0 0 1 1 1 1 1 0 0 0 -0 -0 -0 0 1 1 0 -0 -1 -2 -1 -0 1 2 1 1 1 1 1 1 1 0 0 1 1 2 2 2 2 2 2 1 -0 -0 -0 -0
3 2 2 2 2 3 3 2 1 0 0 1 1 2 3 3 2 1 1 1 1 1 1 2 2 2 2 2 2 2 2 2 2 1 1 1 1 1 1 1 1 1 1 1 1 1 1 1 1 0 -0 -0 -1 -1 -1 -0 -1 -2 -3 -3 -3 -2 -0 -0 -0 -1 1 -1 -1 -0 1 0 1 1 2 3 2 2 2 2 2 1 -0 -2 -3 -3
4 4 3 3 3 3 3 1 0 -0 0 1 2 2 3 2 2 1 1 1 1 1 1 1 1 1 2 2 2 2 1 2 1 1 1 1 1 1 1 1 1 1 1 1 0 0 1 1 0 -0 -0 -1 -1 -2 -2 -1 -2 -2 -3 -4 -3 -3 -2 -2 -2 -1 -0 -1 -2 -2 -2 -1 -1 -0 1 2 2 2 2 2 2 1 1 -0 -2 -3
6 5 4 3 2 2 1 0 -0 0 1 2 2 3 3 2 2 1 1 1 1 1 1 1 1 1 2 2 2 1 1 1 1 1 1 1 1 2 2 1 1 1 1 0 -1 -1 -1 -0 -0 -0 -0 -1 -1 -2 -2 -2 -2 -2 -2 -3 -2 -2 -2 -3 -2 -2 -2 -3 -2 -2 -3 -3 -3 -2 -1 0 1 1 2 1 1 0 -0 -1 -1 -1
5 4 3 2 2 1 0 -0 0 1 2 2 2 2 2 2 2 2 1 1 1 1 1 1 1 1 1 1 1 1 1 1 1 1 1 2 2 2 1 1 0 0 0 -0 -1 -1 -2 -2 -1 -1 -0 -0 -0 -1 -2 -2 -2 -2 -2 -2 -2 -2 -2 -2 -1 -1 -2 -3 -3 -3 -4 -4 -3 -3 -3 -2 -0 1 1 1 0 -1 -2 -2 -2 -1
4 3 2 2 2 1 1 1 1 2 2 2 2 2 2 2 2 1 1 1 1 1 1 1 1 1 1 1 1 1 1 0 1 1 2 2 2 2 1 0 -0 -0 -1 -0 -0 -0 -1 -1 -1 -1 -1 -1 -1 -1 -1 -1 -2 -2 -2 -2 -1 -1 -2 -2 -2 -2 -2 -2 -3 -4 -5 -4 -4 -4 -5 -4 -2 -0 1 1 1 -1 -3 -3 -2 -2
4 4 3 3 2 2 1 1 2 2 2 2 2 2 2 2 2 1 1 1 1 1 1 1 1 1 1 1 1 1 1 1 1 1 2 2 2 2 1 1 0 -0 -0 -0 -0 -0 0 -0 -0 -1 -2 -2 -2 -2 -1 -1 -1 -1 -2 -2 -2 -2 -2 -3 -3 -3 -3 -3 -3 -4 -5 -5 -5 -6 -6 -4 -2 0 1 1 1 -0 -1 -2 -2 -2
6 5 4 4 3 2 1 1 2 2 1 1 1 2 2 2 2 1 1 1 1 1 1 1 1 0 0 1 1 1 1 1 2 2 2 2 2 2 1 1 1 0 0 0 0 0 0 0 0 -0 -1 -2 -2 -3 -2 -2 -2 -2 -2 -2 -2 -2 -2 -3 -3 -3 -3 -3 -3 -3 -3 -4 -5 -6 -7 -5 -3 -0 3 3 2 0 -1 -1 -1 -2
6 5 4 4 3 2 1 1 1 1 1 1 1 2 2 2 1 1 1 1 1 1 1 1 1 0 0 1 1 1 1 2 2 2 2 2 2 1 1 1 1 1 0 0 0 0 0 0 -0 -0 -1 -1 -3 -4 -4 -3 -3 -2 -2 -3 -3 -2 -2 -3 -3 -2 -2 -3 -3 -3 -2 -3 -4 -5 -4 -5 -5 -3 2 4 3 2 -0 -1 -1 -1
5 4 4 4 3 2 1 1 0 0 0 1 1 1 1 1 1 1 1 1 1 1 1 1 1 0 1 1 1 2 2 2 2 2 2 2 2 1 1 1 1 0 0 -0 -0 -0 0 0 0 -0 -0 0 0 -1 -3 -5 -4 -3 -2 -3 -3 -2 -2 -3 -3 -3 -1 -2 -2 -3 -2 -3 -4 -5 -4 -4 -5 -4 -0 3 3 2 1 -1 -1 -1
5 4 4 3 2 1 -0 -0 0 0 0 1 1 1 1 1 1 1 1 1 1 1 1 1 1 1 1 1 2 2 2 2 2 2 2 2 2 2 1 1 1 1 0 -0 -0 -0 1 2 2 2 2 1 3 5 3 -2 -5 -5 -4 -4 -3 -2 -2 -3 -3 -2 -1 -1 -2 -2 -2 -3 -3 -4 -4 -4 -5 -5 -3 0 2 3 2 -1 -2 -2
Height
3018 3018 3019 3020 3019 3018 3018 3018 3018 3017 3016 3016 3016 3016 3015 3015 3014 3014 3014 3014 3013 3013 3013 3012 3012 3012 3012 3011 3011 3011 3011 3011 3011 3011 3010 3010 3010 3010 3009 3009 3009 3009 3008 3008 3008 3007 3007 3007 3006 3006 3006 3005 3005 3005 3004 3004 3004 3003 3003 3003 3002 3002 3002 3001 3001 3001 3001 3001 3000 3000 3000 3000 3000 3000 2999 2999 2999 2999 2999 2999 2998 2998 2998 2998 2998 2997
3015 3015 3016 3016 3016 3016 3015 3015 3015 3014 3013 3013 3013 3013 3012 3012 3012 3012 3012 3011 3011 3011 3010 3010 3010 3009 3009 3009 3008 3008 3008 3008 3008 3008 3007 3007 3007 3007 3007 3007 3006 3006 3006 3006 3005 3005 3005 3004 3004 3004 3003 3003 3002 3002 3002 3002 3001 3001 3001 3000 3000 3000 2999 2999 2998 2998 2998 2998 2998 2998 2997 2997 2997 2997 2997 2996 2996 2996 2996 2995 2995 2995 2995 2995 2995 2994
3012 3012 3012 3013 3013 3012 3012 3012 3012 3012 3011 3010 3010 3010 3010 3010 3009 3009 3009 3009 3008 3008 3008 3007 3007 3007 3007 3006 3006 3006 3006 3005 3005 3005 3005 3004 3004 3004 3004 3003 3003 3003 3003 3003 3002 3002 3002 3002 3001 3001 3001 3000 3000 3000 2999 2999 2999 2998 2998 2997 2997 2997 2997 2996 2996 2996 2996 2995 2995 2995 2994 2994 2994 2994 2993 2993 2993 2992 2992 2992 2992 2992 2992 2992 2991 2991
3009 3009 3009 3010 3010 3009 3009 3009 3009 3008 3008 3008 3007 3007 3007 3007 3007 3007 3007 3006 3006 3006 3005 3005 3005 3005 3004 3004 3003 3003 3003 3003 3002 3002 3002 3002 3001 3001 3001 3001 3000 3000 3000 3000 2999 2999 2999 2999 2999 2998 2998 2998 2997 2997 2997 2997 2996 2996 2995 2995 2994 2994 2994 2993 2993 2993 2992 2992 2992 2992 2991 2991 2991 2990 2990 2990 2989 2989 2989 2988 2988 2988 2988 2988 2988 2987
3006 3006 3006 3007 3007 3006 3006 3006 3006 3005 3005 3005 3005 3004 3004 3004 3004 3004 3004 3004 3003 3003 3003 3002 3002 3002 3002 3001 3001 3001 3000 3000 2999 2999 2999 2998 2998 2998 2998 2997 2997 2997 2997 2997 2997 2996 2996 2996 2996 2996 2995 2995 2995 2994 2994 2993 2993 2993 2992 2992 2992 2991 2991 2990 2990 2990 2989 2989 2988 2988 2988 2987 2987 2987 2987 2987 2986 2986 2986 2985 2985 2985 2985 2985 2984 2984
3003 3003 3003 3004 3004 3003 3003 3003 3003 3002 3002 3002 3002 3002 3002 3002 3002 3001 3001 3001 3001 3001 3000 3000 3000 2999 2999 2999 2998 2998 2997 2997 2997 2996 2996 2996 2996 2995 2995 2995 2994 2994 2994 2994 2994 2993 2993 2993 2993 2993 2992 2992 2992 2991 2991 2991 2990 2990 2989 2989 2988 2988 2987 2987 2987 2987 2986 2986 2986 2985 2985 2985 2984 2984 2984 2983 2983 2983 2982 2982 2982 2982 2982 2981 2981 2981
3000 3000 3001 3001 3001 3000 3000 3000 3000 3000 2999 2999 2999 2999 2999 2999 2998 2998 2998 2998 2998 2998 2997 2997 2997 2997 2996 2996 2996 2995 2995 2994 2994 2993 2993 2993 2993 2992 2992 2992 2992 2992 2991 2991 2991 2991 2990 2990 2990 2990 2989 2989 2989 2988 2988 2987 2987 2987 2986 2986 2986 2985 2985 2984 2984 2984 2983 2983 2983 2982 2982 2982 2982 2981 2981 2981 2980 2980 2980 2979 2979 2979 2978 2978 2978 2977
2997 2997 2997 2997 2997 2997 2997 2997 2997 2997 2997 2996 2996 2996 2996 2996 2996 2996 2996 2996 2996 2995 2995 2995 2994 2994 2994 2993 2993 2992 2992 2992 2991 2991 2991 2990 2990 2990 2989 2989 2989 2989 2988 2988 2988 2988 2987 2987 2987 2987 2986 2986 2986 2985 2985 2985 2984 2984 2983 2983 2983 2982 2982 2982 2981 2981 2981 2980 2980 2980 2979 2979 2979 2978 2978 2978 2977 2977 2977 2976 2976 2976 2975 2975 2975 2974
2994 2994 2994 2994 2994 2994 2994 2994 2994 2994 2994 2993 2993 2993 2993 2993 2992 2992 2993 2992 2992 2993 2992 2992 2992 2991 2991 2991 2990 2990 2989 2989 2988 2988 2988 2987 2987 2987 2987 2987 2986 2986 2986 2986 2985 2985 2985 2984 2984 2984 2983 2983 2982 2982 2982 2982 2981 2981 2981 2980 2980 2979 2979 2979 2978 2978 2978 2977 2977 2977 2977 2976 2976 2976 2975 2975 2974 2974 2974 2973 2973 2972 2972 2972 2972 2971
2991 2991 2991 2991 2991 2992 2991 2991 2991 2992 2992 2991 2990 2990 2990 2990 2990 2990 2990 2989 2990 2990 2990 2989 2989 2988 2988 2988 2987 2987 2986 2986 2986 2985 2985 2985 2984 2984 2984 2984 2984 2983 2983 2983 2982 2982 2982 2982 2981 2981 2980 2980 2980 2980 2979 2979 2978 2978 2978 2977 2977 2977 2976 2976 2976 2975 2975 2975 2974 2974 2974 2973 2973 2973 2972 2972 2972 2971 2971 2971 2970 2970 2969 2969 2969 2968
2988 2988 2988 2988 2988 2988 2988 2988 2988 2988 2989 2988 2987 2987 2987 2987 2987 2987 2987 2987 2987 2987 2987 2987 2987 2986 2985 2985 2984 2984 2983 2983 2983 2982 2982 2982 2982 2982 2981 2981 2981 2981 2980 2980 2980 2979 2979 2979 2978 2978 2978 2977 2977 2977 2977 2976 2976 2975 2975 2975 2974 2974 2974 2973 2973 2973 2972 2972 2972 2971 2971 2971 2970 2970 2970 2969 2969 2968 2968 2968 2967 2967 2967 2966 2966 2966
2985 2985 2985 2985 2985 2985 2985 2985 2985 2985 2986 2985 2985 2984 2984 2984 2984 2984 2984 2983 2984 2984 2984 2984 2984 2983 2983 2982 2982 2981 2981 2981 2980 2980 2980 2979 2979 2979 2979 2978 2978 2978 2977 2977 2977 2977 2976 2976 2976 2976 2975 2975 2975 2974 2974 2973 2973 2973 2972 2972 2972 2971 2971 2971 2970 2970 2970 2969 2969 2969 2968 2968 2967 2967 2967 2967 2966 2966 2965 2965 2965 2964 2964 2964 2963 2963
2982 2982 2982 2982 2982 2982 2982 2982 2982 2982 2982 2982 2982 2982 2982 2982 2982 2981 2981 2981 2981 2981 2981 2981 2981 2980 2980 2979 2979 2979 2978 2978 2977 2977 2977 2977 2977 2977 2976 2976 2976 2975 2975 2975 2974 2974 2974 2973 2973 2973 2973 2972 2972 2972 2971 2971 2971 2970 2970 2969 2969 2969 2968 2968 2968 2967 2967 2967 2966 2966 2966 2965 2965 2965 2964 2964 2963 2963 2963 2962 2962 2962 2961 2961 2961 2960
2979 2979 2979 2979 2979 2979 2979 2979 2979 2979 2979 2979 2979 2979 2978 2978 2978 2978 2978 2977 2977 2978 2978 2978 2977 2977 2977 2977 2976 2976 2975 2975 2975 2974 2974 2974 2974 2974 2973 2973 2973 2973 2972 2972 2972 2972 2971 2971 2971 2971 2970 2970 2970 2969 2969 2968 2968 2967 2967 2967 2967 2966 2966 2966 2965 2965 2964 2964 2964 2963 2963 2963 2962 2962 2962 2961 2961 2961 2960 2960 2959 2959 2959 2958 2958 2958
2976 2976 2976 2976 2976 2976 2976 2976 2977 2976 2976 2976 2976 2976 2976 2976 2976 2976 2975 2975 2975 2975 2975 2975 2974 2974 2974 2974 2974 2973 2972 2972 2972 2972 2971 2971 2971 2971 2971 2971 2970 2970 2970 2969 2969 2969 2969 2968 2968 2968 2968 2967 2967 2967 2966 2966 2965 2965 2965 2964 2964 2964 2963 2963 2963 2962 2962 2962 2961 2961 2961 2960 2960 2959 2959 2959 2958 2958 2957 2957 2957 2957 2956 2956 2955 2955
2973 2973 2972 2972 2972 2973 2973 2973 2973 2973 2972 2973 2973 2973 2972 2972 2972 2973 2973 2972 2972 2972 2972 2972 2971 2971 2971 2971 2971 2971 2970 2969 2969 2969 2969 2968 2968 2968 2968 2968 2967 2967 2967 2967 2967 2966 2966 2966 2966 2966 2965 2965 2965 2964 2964 2963 2963 2963 2962 2962 2962 2962 2961 2961 2960 2960 2960 2959 2959 2959 2958 2958 2957 2957 2957 2956 2956 2956 2955 2955 2954 2954 2953 2953 2953 2952
2970 2970 2969 2970 2969 2970 2970 2970 2970 2969 2969 2969 2970 2970 2970 2970 2970 2970 2970 2969 2969 2969 2969 2969 2969 2968 2968 2968 2968 2968 2967 2967 2966 2966 2966 2966 2966 2966 2966 2965 2965 2965 2965 2965 2964 2964 2964 2964 2963 2963 2963 2962 2962 2962 2962 2961 2961 2961 2960 2960 2960 2959 2959 2958 2958 2958 2957 2957 2957 2956 2956 2956 2955 2955 2954 2954 2953 2953 2952 2952 2952 2951 2951 2951 2950 2950
2966 2966 2966 2966 2966 2966 2967 2967 2967 2966 2966 2966 2966 2967 2967 2967 2967 2967 2967 2967 2967 2966 2966 2966 2966 2966 2965 2965 2965 2965 2965 2964 2963 2963 2963 2963 2963 2963 2963 2962 2962 2962 2962 2962 2962 2962 2961 2961 2961 2961 2961 2960 2960 2960 2959 2959 2959 2958 2958 2958 2957 2957 2957 2956 2956 2956 2955 2955 2954 2954 2954 2953 2953 2952 2952 2952 2951 2951 2950 2950 2949 2949 2948 2948 2947 2947
2962 2963 2963 2963 2963 2963 2963 2963 2963 2963 2963 2963 2963 2963 2963 2963 2963 2964 2963 2963 2964 2963 2963 2963 2963 2963 2963 2962 2962 2963 2962 2961 2961 2961 2961 2961 2961 2960 2960 2960 2960 2960 2960 2959 2959 2959 2959 2959 2959 2958 2958 2958 2957 2957 2957 2957 2956 2956 2956 2955 2955 2955 2954 2954 2954 2953 2953 2952 2952 2952 2952 2951 2951 2950 2950 2949 2949 2948 2948 2947 2947 2947 2946 2946 2945 2945
2959 2959 2960 2960 2960 2960 2959 2960 2960 2960 2960 2960 2960 2960 2960 2960 2961 2961 2961 2961 2961 2961 2961 2961 2960 2960 2960 2960 2960 2960 2960 2959 2958 2958 2958 2958 2958 2958 2958 2957 2957 2957 2957 2957 2957 2957 2956 2956 2956 2956 2956 2956 2955 2955 2955 2954 2954 2953 2953 2953 2952 2952 2952 2952 2952 2951 2951 2951 2950 2950 2949 2949 2948 2948 2947 2947 2947 2946 2946 2945 2945 2944 2944 2943 2942 2942
2955 2956 2956 2956 2956 2956 2956 2956 2957 2957 2957 2957 2957 2957 2957 2957 2957 2957 2957 2958 2957 2957 2958 2958 2957 2957 2958 2957 2957 2957 2957 2956 2956 2956 2956 2956 2956 2956 2955 2955 2955 2954 2954 2954 2954 2954 2954 2954 2954 2954 2953 2953 2953 2952 2952 2952 2952 2951 2951 2951 2950 2950 2950 2949 2949 2949 2949 2948 2948 2948 2947 2947 2947 2946 2946 2945 2944 2944 2943 2943 2942 2942 2941 2941 2940 2940
2952 2952 2952 2952 2952 2952 2952 2952 2953 2953 2953 2953 2953 2953 2953 2954 2954 2954 2954 2955 2955 2955 2955 2955 2955 2955 2955 2955 2954 2954 2954 2954 2953 2953 2953 2953 2953 2953 2953 2952 2952 2952 2952 2952 2952 2951 2951 2951 2951 2951 2951 2951 2950 2950 2950 2949 2949 2949 2948 2948 2948 2948 2947 2947 2947 2947 2947 2946 2946 2946 2945 2945 2944 2944 2943 2943 2942 2942 2941 2941 2940 2939 2939 2938 2938 2937
2948 2948 2948 2949 2949 2949 2949 2949 2949 2950 2950 2950 2950 2950 2951 2951 2951 2951 2951 2952 2952 2952 2952 2952 2952 2952 2952 2952 2952 2952 2952 2951 2951 2951 2951 2951 2951 2951 2951 2950 2950 2950 2950 2949 2949 2949 2948 2948 2948 2948 2948 2948 2948 2947 2947 2947 2947 2946 2946 2946 2946 2946 2945 2945 2945 2945 2944 2944 2944 2943 2943 2943 2942 2942 2941 2941 2940 2940 2939 2938 2938 2937 2937 2936 2936 2935
2944 2945 2945 2945 2946 2946 2946 2946 2946 2947 2947 2947 2947 2947 2947 2948 2948 2948 2948 2948 2949 2949 2949 2949 2949 2949 2949 2949 2949 2949 2949 2948 2948 2948 2948 2949 2949 2949 2948 2948 2948 2947 2947 2947 2947 2946 2946 2946 2946 2946 2946 2946 2945 2945 2945 2944 2944 2944 2944 2943 2943 2943 2943 2943 2943 2942 2942 2942 2942 2941 2941 2941 2940 2940 2939 2939 2938 2937 2937 2936 2936 2935 2934 2934 2933 2933
2941 2941 2942 2942 2942 2942 2942 2943 2943 2943 2943 2943 2944 2944 2944 2944 2945 2945 2945 2946 2946 2946 2946 2946 2947 2947 2947 2947 2947 2946 2946 2946 2946 2946 2946 2946 2947 2947 2946 2946 2946 2945 2945 2945 2944 2944 2944 2944 2944 2944 2943 2943 2943 2942 2942 2942 2942 2942 2941 2941 2941 2941 2941 2941 2941 2940 2940 2940 2939 2939 2939 2938 2938 2937 2937 2937 2936 2936 2935 2934 2934 2933 2932 2932 2931 2931
2937 2938 2938 2939 2939 2939 2939 2939 2940 2940 2940 2940 2940 2941 2941 2941 2942 2942 2942 2942 2943 2943 2943 2943 2943 2944 2944 2944 2944 2944 2943 2943 2943 2943 2944 2944 2944 2944 2944 2944 2943 2943 2943 2942 2942 2942 2941 2941 2942 2942 2941 2941 2941 2940 2940 2940 2939 2939 2939 2939 2939 2938 2938 2938 2938 2938 2938 2937 2937 2937 2937 2936 2936 2935 2935 2934 2934 2933 2933 2932 2932 2931 2930 2930 2929 2928
2934 2935 2935 2935 2936 2936 2936 2936 2937 2937 2937 2937 2937 2937 2938 2938 2938 2939 2939 2940 2940 2940 2940 2940 2941 2941 2941 2942 2941 2941 2941 2941 2941 2941 2941 2942 2942 2942 2942 2942 2941 2941 2941 2940 2940 2939 2939 2939 2939 2939 2939 2939 2938 2938 2937 2937 2937 2937 2937 2937 2936 2936 2936 2936 2936 2936 2935 2935 2935 2935 2934 2934 2933 2933 2933 2932 2932 2931 2930 2930 2929 2928 2928 2927 2927 2926
2931 2932 2932 2932 2932 2933 2933 2933 2933 2933 2934 2934 2934 2934 2935 2935 2935 2936 2936 2937 2937 2937 2937 2938 2938 2938 2938 2938 2938 2938 2938 2939 2939 2939 2939 2939 2939 2940 2940 2939 2939 2938 2938 2938 2938 2937 2937 2937 2937 2937 2937 2937 2936 2936 2935 2935 2935 2935 2934 2934 2934 2934 2933 2933 2933 2933 2933 2932 2932 2932 2932 2931 2931 2931 2930 2930 2929 2928 2928 2927 2927 2926 2926 2925 2924 2924
2928 2928 2929 2929 2929 2930 2930 2930 2930 2930 2931 2931 2931 2932 2932 2932 2932 2933 2933 2934 2934 2935 2935 2935 2935 2936 2936 2936 2936 2936 2936 2936 2937 2937 2937 2937 2937 2937 2937 2937 2937 2936 2936 2936 2936 2936 2935 2935 2935 2935 2935 2934 2934 2934 2933 2933 2932 2932 2932 2932 2932 2931 2931 2931 2931 2930 2930 2930 2930 2929 2929 2929 2928 2928 2927 2927 2927 2926 2925 2925 2924 2923 2923 2922 2922 2921
2925 2925 2926 2926 2926 2927 2927 2927 2927 2927 2928 2928 2928 2929 2929 2929 2930 2930 2931 2931 2932 2932 2932 2932 2932 2933 2933 2933 2933 2934 2934 2934 2934 2934 2934 2934 2935 2935 2935 2935 2934 2934 2934 2934 2934 2934 2933 2933 2933 2933 2932 2932 2932 2932 2931 2931 2930 2930 2930 2929 2929 2929 2928 2928 2928 2928 2927 2927 2927 2927 2926 2926 2926 2925 2925 2924 2924 2923 2922 2922 2921 2921 2920 2920 2919 2918
2922 2923 2923 2923 2923 2923 2924 2924 2924 2924 2925 2925 2926 2926 2926 2927 2927 2927 2928 2929 2929 2929 2930 2930 2930 2930 2931 2931 2931 2931 2932 2932 2932 2932 2932 2932 2932 2933 2933 2932 2932 2932 2932 2932 2932 2932 2932 2932 2932 2931 2931 2930 2930 2930 2929 2929 2928 2928 2927 2927 2927 2926 2926 2925 2925 2925 2925 2924 2924 2923 2923 2923 2922 2922 2922 2921 2921 2920 2920 2919 2918 2918 2917 2917 2916 2916
2920 2920 2920 2920 2920 2921 2921 2921 2922 2922 2922 2922 2923 2923 2924 2924 2925 2925 2926 2926 2927 2927 2927 2927 2927 2928 2928 2928 2929 2929 2929 2929 2929 2929 2929 2929 2930 2930 2930 2930 2930 2930 2929 2929 2929 2929 2930 2930 2930 2929 2929 2928 2928 2928 2927 2927 2927 2926 2926 2925 2924 2924 2923 2922 2922 2922 2922 2921 2921 2920 2920 2920 2919 2919 2919 2918 2918 2917 2917 2916 2916 2915 2914 2914 2913 2913
2917 2917 2917 2917 2918 2918 2918 2919 2919 2919 2919 2920 2920 2921 2922 2922 2922 2923 2923 2924 2924 2924 2924 2925 2925 2926 2926 2926 2927 2927 2927 2927 2927 2927 2927 2927 2927 2928 2928 2928 2927 2927 2927 2927 2927 2927 2927 2927 2928 2927 2927 2927 2926 2926 2926 2925 2925 2924 2924 2923 2922 2922 2921 2920 2919 2919 2918 2918 2918 2917 2917 2917 2916 2916 2916 2915 2915 2914 2914 2913 2912 2912 2911 2911 2910 2909
2914 2914 2914 2915 2915 2915 2916 2916 2917 2917 2917 2917 2918 2919 2919 2920 2920 2921 2921 2921 2922 2922 2922 2922 2923 2923 2923 2924 2924 2924 2924 2924 2924 2924 2925 2925 2925 2926 2926 2926 2925 2925 2925 2925 2925 2925 2925 2926 2926 2926 2926 2925 2925 2924 2924 2923 2923 2922 2922 2921 2921 2920 2919 2918 2917 2917 2916 2915 2915 2914 2914 2913 2913 2912 2912 2912 2912 2911 2911 2910 2909 2908 2908 2907 2907 2906
2911 2912 2912 2912 2912 2913 2913 2914 2914 2914 2915 2915 2916 2917 2917 2917 2918 2918 2918 2919 2919 2919 2920 2920 2920 2921 2921 2922 2922 2922 2922 2922 2922 2922 2922 2923 2923 2923 2923 2923 2923 2923 2923 2923 2923 2923 2923 2923 2924 2924 2924 2923 2923 2923 2922 2922 2921 2921 2920 2919 2919 2918 2917 2916 2916 2915 2914 2913 2912 2912 2911 2910 2910 2909 2909 2909 2908 2908 2907 2907 2906 2905 2904 2903 2903 2902
2908 2909 2910 2910 2910 2911 2911 2912 2912 2912 2912 2913 2913 2914 2914 2915 2915 2916 2916 2917 2917 2917 2917 2917 2918 2918 2919 2919 2920 2920 2920 2920 2920 2920 2920 2921 2921 2921 2921 2921 2921 2921 2921 2921 2921 2921 2921 2921 2922 2922 2922 2922 2921 2921 2921 2920 2920 2919 2918 2918 2917 2916 2915 2914 2913 2913 2912 2911 2910 2909 2908 2908 2907 2907 2906 2906 2905 2904 2904 2903 2902 2902 2901 2900 2899 2898
2906 2907 2907 2907 2908 2908 2909 2909 2909 2910 2910 2911 2911 2912 2912 2912 2913 2913 2914 2914 2914 2915 2915 2915 2916 2916 2916 2917 2917 2917 2917 2917 2917 2917 2918 2918 2919 2919 2919 2919 2919 2919 2919 2919 2919 2919 2919 2919 2919 2920 2920 2919 2919 2919 2919 2918 2918 2917 2917 2916 2915 2914 2913 2912 2912 2911 2910 2909 2908 2907 2906 2905 2905 2904 2903 2903 2902 2902 2901 2900 2899 2898 2897 2896 2895 2894
2904 2904 2905 2905 2906 2906 2907 2907 2907 2907 2908 2908 2909 2909 2909 2910 2910 2911 2911 2912 2912 2912 2913 2913 2913 2914 2914 2914 2915 2915 2915 2915 2915 2916 2916 2916 2917 2917 2917 2917 2917 2917 2917 2917 2917 2917 2917 2917 2917 2917 2917 2917 2917 2917 2917 2916 2916 2915 2914 2914 2913 2912 2911 2910 2909 2908 2907 2906 2905 2904 2903 2902 2902 2901 2900 2900 2899 2899 2898 2897 2896 2895 2894 2893 2892 2891
2902 2902 2902 2903 2903 2904 2904 2904 2905 2905 2905 2906 2906 2906 2907 2907 2908 2908 2909 2909 2910 2910 2911 2911 2911 2912 2912 2912 2913 2913 2913 2913 2913 2913 2914 2914 2915 2915 2915 2916 2916 2916 2915 2915 2915 2915 2915 2915 2915 2915 2915 2915 2915 2915 2915 2914 2913 2913 2912 2911 2911 2910 2909 2907 2907 2906 2905 2904 2902 2902 2901 2900 2899 2898 2897 2897 2896 2896 2895 2894 2893 2892 2891 2889 2888 2887
2899 2900 2900 2901 2901 2901 2902 2902 2902 2902 2903 2903 2903 2904 2904 2905 2905 2906 2906 2907 2907 2908 2908 2908 2909 2909 2910 2910 2911 2911 2911 2911 2911 2912 2912 2912 2913 2913 2913 2913 2913 2913 2913 2913 2913 2913 2913 2913 2913 2913 2913 2913 2913 2913 2912 2912 2911 2910 2909 2909 2908 2907 2906 2905 2904 2903 2902 2901 2900 2898 2897 2897 2896 2895 2894 2893 2893 2892 2891 2891 2890 2889 2887 2886 2885 2884
2897 2897 2898 2898 2898 2899 2899 2900 2900 2900 2900 2901 2901 2902 2902 2902 2903 2903 2904 2905 2905 2906 2906 2906 2907 2907 2907 2908 2908 2909 2909 2909 2909 2910 2910 2910 2911 2911 2911 2912 2912 2911 2911 2911 2911 2911 2911 2911 2911 2911 2911 2910 2910 2910 2910 2909 2908 2907 2907 2906 2905 2904 2904 2902 2901 2900 2899 2898 2897 2896 2895 2893 2893 2892 2891 2890 2889 2889 2888 2887 2886 2885 2883 2882 2881 2880
2895 2895 2895 2896 2896 2897 2897 2897 2897 2897 2898 2898 2899 2899 2900 2900 2901 2901 2902 2902 2903 2903 2904 2904 2904 2905 2905 2906 2907 2907 2907 2907 2907 2908 2908 2908 2909 2909 2909 2909 2909 2909 2909 2909 2909 2909 2908 2908 2908 2908 2908 2907 2907 2907 2907 2907 2906 2905 2903 2903 2902 2901 2901 2900 2899 2897 2896 2895 2894 2893 2892 2891 2890 2889 2888 2887 2886 2885 2884 2883 2882 2881 2879 2878 2877 2875
2892 2893 2893 2893 2894 2894 2894 2895 2895 2895 2895 2896 2896 2897 2897 2898 2899 2899 2900 2900 2901 2901 2901 2902 2902 2903 2903 2904 2905 2905 2905 2906 2906 2906 2906 2907 2907 2907 2907 2907 2907 2907 2907 2907 2907 2906 2906 2906 2905 2905 2905 2905 2904 2904 2904 2904 2903 2902 2901 2900 2899 2898 2897 2897 2896 2894 2893 2892 2891 2889 2888 2887 2886 2886 2885 2884 2883 2882 2881 2879 2878 2877 2875 2874 2872 2871
2890 2890 2891 2891 2891 2892 2892 2892 2892 2893 2893 2894 2894 2895 2895 2896 2897 2897 2897 2898 2898 2899 2899 2900 2900 2901 2902 2902 2903 2903 2903 2904 2904 2904 2904 2904 2905 2905 2905 2905 2905 2905 2905 2904 2904 2904 2903 2903 2903 2902 2902 2902 2902 2901 2901 2901 2900 2899 2897 2897 2896 2895 2894 2893 2892 2891 2890 2888 2887 2886 2885 2884 2883 2882 2881 2881 2880 2878 2877 2876 2874 2873 2871 2869 2867 2866
2887 2888 2888 2888 2889 2889 2889 2890 2890 2891 2891 2892 2892 2893 2893 2894 2895 2895 2896 2896 2897 2897 2897 2898 2898 2899 2900 2901 2901 2901 2901 2902 2902 2902 2902 2902 2902 2902 2902 2902 2902 2902 2902 2902 2902 2901 2901 2901 2900 2900 2899 2899 2899 2898 2898 2897 2897 2896 2894 2893 2892 2891 2890 2889 2888 2887 2886 2885 2884 2883 2882 2881 2879 2878 2877 2877 2876 2875 2873 2872 2870 2868 2867 2865 2863 2861
2885 2885 2885 2886 2886 2887 2887 2887 2888 2888 2889 2889 2890 2891 2891 2892 2892 2893 2893 2894 2895 2895 2896 2896 2897 2897 2898 2899 2899 2899 2899 2899 2900 2900 2900 2900 2900 2900 2900 2900 2900 2900 2900 2900 2899 2899 2899 2898 2898 2897 2897 2896 2896 2895 2895 2894 2893 2892 2891 2890 2889 2888 2887 2886 2885 2883 2882 2881 2880 2879 2878 2877 2876 2874 2873 2872 2872 2870 2869 2867 2866 2864 2862 2860 2858 2856
2882 2882 2883 2883 2884 2884 2885 2885 2886 2886 2887 2887 2888 2889 2889 2890 2891 2891 2892 2892 2893 2893 2894 2894 2895 2896 2896 2897 2897 2897 2897 2897 2897 2897 2898 2898 2898 2898 2898 2898 2898 2898 2897 2897 2897 2897 2897 2896 2896 2895 2894 2894 2893 2892 2892 2890 2889 2888 2887 2887 2886 2885 2883 2882 2881 2880 2878 2877 2876 2875 2874 2873 2872 2870 2869 2868 2867 2866 2865 2863 2861 2859 2857 2855 2853 2851
2879 2880 2881 2881 2882 2882 2882 2883 2884 2884 2885 2886 2886 2887 2887 2888 2889 2889 2890 2890 2891 2892 2892 2893 2893 2894 2894 2895 2895 2895 2895 2895 2895 2896 2896 2896 2896 2896 2896 2896 2896 2895 2895 2895 2895 2894 2894 2893 2893 2892 2892 2891 2890 2889 2888 2887 2886 2885 2884 2883 2882 2881 2880 2879 2877 2876 2875 2874 2872 2872 2870 2868 2867 2866 2864 2863 2862 2861 2860 2858 2856 2854 2852 2850 2848 2846
2877 2877 2878 2879 2879 2880 2880 2881 2882 2882 2883 2884 2884 2885 2886 2886 2887 2887 2888 2889 2889 2890 2890 2891 2892 2892 2892 2892 2893 2893 2893 2893 2893 2893 2893 2893 2894 2894 2894 2893 2893 2893 2893 2892 2892 2892 2892 2891 2890 2890 2889 2888 2887 2886 2885 2884 2883 2882 2880 2879 2878 2877 2876 2875 2874 2872 2871 2870 2869 2867 2866 2864 2862 2861 2859 2858 2857 2856 2855 2853 2851 2849 2847 2845 2843 2842
2874 2875 2876 2876 2877 2878 2878 2879 2880 2881 2881 2882 2882 2883 2884 2884 2885 2886 2886 2887 2887 2888 2888 2889 2889 2890 2890 2891 2891 2891 2891 2891 2891 2891 2892 2892 2892 2891 2891 2891 2891 2891 2891 2890 2890 2890 2889 2889 2888 2887 2886 2885 2884 2883 2882 2881 2880 2878 2877 2876 2875 2873 2872 2871 2870 2869 2867 2866 2864 2863 2862 2860 2858 2856 2854 2852 2851 2850 2850 2848 2847 2845 2843 2841 2839 2838
2872 2872 2873 2874 2875 2876 2877 2877 2878 2879 2879 2880 2881 2882 2882 2883 2883 2884 2885 2885 2886 2886 2887 2887 2887 2888 2888 2888 2889 2889 2889 2889 2889 2889 2889 2889 2889 2889 2889 2889 2889 2889 2888 2888 2887 2887 2887 2886 2886 2885 2884 2882 2881 2880 2879 2878 2877 2876 2874 2872 2871 2870 2868 2867 2866 2865 2863 2862 2860 2859 2857 2855 2853 2851 2849 2848 2846 2845 2845 2844 2843 2842 2839 2838 2836 2835